Погода в Курунегале

Шри-Ланка     7°28′53″N   80°22′14″E
темп.,
°C
ветер,
м/с
пор.,
м/с
влажн.,
%
обл.,
%
осадки,
мм/ч
давл.,
гПа
погр.,
м
12 августа, пт
пт1223:30+25ю2885100 0.0 1010504
02:30+24ю288989 0.1 1009350
05:30+24ююз289215 0.2 1009386
08:30+28юз487329 0.1 10101061
11:30+32зюз575123 0.1 10091659
14:30+31зюз4652100 0.0 10071584
17:30+28ююз3668100 0.0 10081004
20:30+25ю3881100 0.0 1009520
13 августа, сб
сб1323:30+25ю2882100 0.0 1010438
02:30+24ю2883100 0.0 1008332
05:30+24ю2784100 0.0 1008311
08:30+27ююз367399 0.0 1010919
11:30+31юз355598 0.1 10081618
14:30+30зюз355698 0.0 10061453
17:30+28юз356799 0.0 1007871
20:30+25ю2784100 0.0 1009421
14 августа, вс
вс1423:30+25ю2886100 0.0 1009446
02:30+24ю2985100 0.0 1007536
05:30+24ю3985100 0.0 1008562
08:30+27ююз4672100 0.0 1010961
11:30+30юз3558100 0.0 10091331
14:30+32юз445099 0.0 10071532
17:30+28юз3566100 0.0 1008946
20:30+25ююз3883100 0.0 1010503
15 августа, пн
пн1523:30+24ю2885100 0.0 1009448
02:30+24ю2985100 0.0 1007449
05:30+24ю298774 0.0 1008493
08:30+28ююз466753 0.0 1010996
11:30+33ююз335051 0.0 10091484
14:30+33юз434993 0.0 10061714
17:30+29юз3666100 0.0 1007802
20:30+25ююз2887100 0.5 1010485
16 августа, вт
вт1623:30+24ююз289063 0.5 1010419
02:30+23ю2894100 2.3 1009420
05:30+23ю289442 2.8 1009342
08:30+27ююз367496 0.1 1011867
11:30+31ююз3455100 0.1 10101479
14:30+31юз335692 0.1 10071373
17:30+29юз356746 0.1 1007867
20:30+25ююз278551 0.0 1010430